Weather History for KP68 - April, 2013

Change the Weather History Date:

Monday, April 29, 2013

  Actual Average Record
Temperature  
Mean Temperature 56 °F 47 °F  
Max Temperature 77 °F 63 °F 83 °F (1992)
Min Temperature 35 °F 31 °F 12 °F (1990)
Degree Days  
Heating Degree Days 9 18  
Month to date heating degree days 592 631  
Since 1 July heating degree days 6399 6787  
Cooling Degree Days 0 0  
Month to date cooling degree days 0 0  
Year to date cooling degree days 0 0  
Growing Degree Days 7 (Base 50)    
Moisture  
Dew Point 24 °F    
Average Humidity 37    
Maximum Humidity 59    
Minimum Humidity 15    
Precipitation  
Precipitation 0.00 in 0.03 in 0.37 in (1999)
Month to date precipitation 0.41 0.94  
Year to date precipitation 2.48 3.47  
Sea Level Pressure  
Sea Level Pressure 29.81 in    
Wind  
Wind Speed 9 mph (West)    
Max Wind Speed 24 mph    
Max Gust Speed 32 mph    
T = Trace of Precipitation, MM = Missing Value Source: NWS Daily Summary

Daily Weather History Graph

Daily Weather History Graph

Search for Another Location

Airport or City:

Trip Planner

Search our weather history database for the weather conditions in past years. The results will help you decide how hot, cold, wet, or windy it might be!

Date:

Astronomy

Apr. 29, 2013 Rise Set
Actual Time 5:46 AM PDT 7:36 PM PDT
Civil Twilight 5:17 AM PDT 8:05 PM PDT
Nautical Twilight 4:42 AM PDT 8:40 PM PDT
Astronomical Twilight 4:05 AM PDT 9:18 PM PDT
Moon No Moon Rise 9:12 AM PDT
Length of Visible Light 14h 47m
Length of Day
13h 49m
Waning Gibbous, 79% of the Moon is Illuminated
Apr 29
Waning Gibbous
May 2
Last Quarter
May 9
New
May 17
First Quarter
May 24
Full

Hourly Weather History & Observations

Time (PDT) Temp. Windchill Dew Point Humidity Pressure Visibility Wind Dir Wind Speed Gust Speed Precip Events Conditions
12:53 AM 43.0 °F 41.3 °F 23.0 °F 45% 29.91 in - SW 3.5 mph - N/A   Unknown
1:53 AM 45.0 °F 43.5 °F 21.9 °F 40% 29.90 in - SSW 3.5 mph - N/A   Unknown
2:53 AM 37.9 °F 33.5 °F 23.0 °F 55% 29.91 in - SSE 5.8 mph - N/A   Unknown
3:53 AM 37.0 °F 34.5 °F 21.9 °F 54% 29.91 in - SSE 3.5 mph - N/A   Unknown
4:53 AM 37.0 °F 34.5 °F 24.1 °F 59% 29.91 in - South 3.5 mph - N/A   Unknown
5:53 AM 37.9 °F 31.5 °F 23.0 °F 55% 29.92 in - South 9.2 mph - N/A   Unknown
6:53 AM 43.0 °F 39.5 °F 26.1 °F 51% 29.91 in - SSE 5.8 mph - N/A   Unknown
7:53 AM 53.1 °F - 27.0 °F 37% 29.91 in - West 3.5 mph - N/A   Unknown
8:53 AM 59.0 °F - 24.1 °F 26% 29.89 in - South 3.5 mph - N/A   Unknown
9:53 AM 64.9 °F - 25.0 °F 22% 29.88 in - WSW 9.2 mph - N/A   Unknown
10:53 AM 68.0 °F - 25.0 °F 20% 29.85 in - WNW 8.1 mph 19.6 mph N/A   Unknown
11:53 AM 72.0 °F - 28.0 °F 20% 29.82 in - NW 10.4 mph 17.3 mph N/A   Unknown
12:53 PM 75.9 °F - 27.0 °F 16% 29.78 in - West 17.3 mph 21.9 mph N/A   Unknown
1:53 PM 77.0 °F - 27.0 °F 16% 29.74 in - West 17.3 mph 29.9 mph N/A   Unknown
2:53 PM 75.9 °F - 26.1 °F 16% 29.74 in - NW 10.4 mph 26.5 mph N/A   Unknown
3:53 PM 75.0 °F - 25.0 °F 16% 29.72 in - NW 19.6 mph 27.6 mph N/A   Unknown
4:53 PM 72.0 °F - 24.1 °F 17% 29.72 in - NW 18.4 mph 27.6 mph N/A   Unknown
5:53 PM 70.0 °F - 21.9 °F 16% 29.73 in - NW 15.0 mph 25.3 mph N/A   Unknown
6:53 PM 66.9 °F - 19.0 °F 16% 29.73 in - NW 17.3 mph - N/A   Unknown
7:53 PM 64.0 °F - 21.9 °F 20% 29.69 in - NW 12.7 mph - N/A   Unknown
8:53 PM 61.0 °F - 23.0 °F 23% 29.69 in - WNW 6.9 mph - N/A   Unknown
9:53 PM 52.0 °F - 23.0 °F 32% 29.70 in - SSE 6.9 mph - N/A   Unknown
10:53 PM 52.0 °F - 25.0 °F 35% 29.70 in - North 5.8 mph - N/A   Unknown
11:53 PM 50.0 °F - 27.0 °F 41% 29.69 in - NNE 10.4 mph - N/A   Unknown